Find Starlink 32440

NORAD ID: 61714 Int'l Des: 2024-196 Owner: SPXS Country: US Constellation: starlink operational
LEOCIRCULAR

当前视图

正在加载3D地球...

About Starlink 32440

Starlink 32440 (NORAD 61714) is a starlink constellation satellite (v2 mini) launched Oct 30, 2024 by SPXS of US. It operates in LEO, CIRCULAR orbit with a mass of 730.00 kg.

即将过境

Passes for default location (London). Set your location on the main map for personalized predictions.

高度历史

Loading altitude history...

两行轨道根数

1 61714U 24196H 26235.73388142 -.00000797 00000-0 -12475-4 0 9993
2 61714 53.1592 43.1808 0000961 85.3814 274.7298 15.34390113102760
Epoch: Aug 23, 2026 • Age: 13 hours

当前状态

高度 466.7 km
远地点 / 近地点 N/A
速度 7.64 km/s
星下点 44.48°N, 19.43°E
发射日期 Oct 30, 2024
运行时间 1.8 years
类型 internet

技术详情

分类 Payload
质量 730.00 kg
干质量 700.00 kg
总质量 730.00 kg
长度 0.30 m
直径 4.10 m
跨度 29.00 m
形状 Box + pan
制造商 SPXS
平台类型 Starlink V2M
阶段状态 In Orbit
所有者/国家 SPXS/US

Most Searched